| time (UTC) | temp F | wind direction | speed knots | gust knots | rain 1hr in | rain 24hr in | rain mn in | humidity % | barometer mb |
| 20260506051033 | 53 | 162 | 3.5 | 6.1 | 0.00 | 0.89 | 0.00 | 94 | 1005.8 |
| 20260506045022 | 53 | 132 | 3.5 | 5.2 | 0.00 | 0.89 | 0.00 | 93 | 1005.7 |
| 20260506044017 | 53 | 149 | 1.7 | 5.2 | 0.00 | 0.89 | 0.00 | 91 | 1005.9 |
| 20260506043032 | 55 | 141 | 3.5 | 6.1 | 0.00 | 0.89 | 0.00 | 92 | 1005.7 |
| 20260506042026 | 53 | 142 | 2.6 | 3.5 | 0.00 | 0.89 | 0.00 | 97 | 1005.7 |
| 20260506041021 | 50 | 139 | 2.6 | 5.2 | 0.00 | 0.89 | 0.00 | 99 | 1005.6 |
| 20260506040016 | 49 | 133 | 2.6 | 3.5 | 0.00 | 0.89 | 0.00 | 98 | 1005.4 |
| 20260506035031 | 49 | 141 | 2.6 | 5.2 | 0.00 | 0.89 | 0.00 | 97 | 1005.3 |
| 20260506034026 | 49 | 137 | 1.7 | 3.5 | 0.00 | 0.89 | 0.00 | 98 | 1005.3 |
| 20260506033021 | 49 | 185 | 0.9 | 2.6 | 0.00 | 0.89 | 0.00 | 98 | 1005.2 |
| 20260506032016 | 49 | 181 | 0.9 | 1.7 | 0.00 | 0.89 | 0.00 | 98 | 1005.1 |
| 20260506031031 | 49 | 159 | 0.9 | 1.7 | 0.00 | 0.89 | 0.00 | 98 | 1005.3 |
| 20260506030026 | 49 | 157 | 1.7 | 5.2 | 0.00 | 0.89 | 0.00 | 98 | 1005.4 |
| 20260506025021 | 49 | 147 | 4.3 | 7.0 | 0.00 | 0.89 | 0.00 | 98 | 1005.3 |
| 20260506024016 | 49 | 135 | 3.5 | 7.0 | 0.00 | 0.89 | 0.00 | 97 | 1005.3 |
| 20260506023051 | 49 | 134 | 1.7 | 2.6 | 0.00 | 0.89 | 0.00 | 96 | 1005.4 |
| 20260506022026 | 50 | 112 | 1.7 | 2.6 | 0.00 | 0.89 | 0.00 | 97 | 1005.4 |
| 20260506021041 | 50 | 112 | 1.7 | 2.6 | 0.00 | 0.89 | 0.00 | 97 | 1005.6 |
| 20260506020036 | 50 | 163 | 0.0 | 0.9 | 0.00 | 0.89 | 0.00 | 96 | 1005.7 |
| 20260506015031 | 50 | 161 | 0.9 | 1.7 | 0.00 | 0.89 | 0.00 | 96 | 1005.8 |
| 20260506014026 | 51 | 263 | 0.9 | 1.7 | 0.00 | 0.89 | 0.00 | 97 | 1005.7 |
| 20260506013020 | 51 | 189 | 0.9 | 2.6 | 0.00 | 0.89 | 0.00 | 97 | 1005.6 |
| 20260506012015 | 50 | 213 | 1.7 | 3.5 | 0.00 | 0.89 | 0.00 | 97 | 1005.7 |
| 20260506010025 | 50 | 173 | 0.9 | 2.6 | 0.00 | 0.89 | 0.00 | 95 | 1005.7 |
| 20260506005021 | 50 | 151 | 0.9 | 1.7 | 0.00 | 0.89 | 0.00 | 94 | 1005.5 |
| 20260506004016 | 50 | 190 | 0.9 | 1.7 | 0.00 | 0.89 | 0.00 | 93 | 1005.6 |
| 20260506003031 | 51 | 0.0 | 0.0 | 0.00 | 0.89 | 0.00 | 93 | 1005.4 | |
| 20260506002026 | 52 | 197 | 0.9 | 1.7 | 0.00 | 0.89 | 0.00 | 94 | 1005.3 |
| 20260506001021 | 52 | 198 | 0.9 | 1.7 | 0.00 | 0.89 | 0.00 | 94 | 1005.5 |
| 20260506000135 | 52 | 206 | 1.7 | 3.5 | 0.00 | 0.89 | 0.00 | 94 | 1005.7 |
| 20260505235049 | 53 | 215 | 0.9 | 2.6 | 0.00 | 0.89 | 0.00 | 94 | 1005.8 |
| 20260505234017 | 53 | 220 | 0.9 | 2.6 | 0.00 | 0.89 | 0.00 | 95 | 1005.9 |
| 20260505233031 | 53 | 227 | 1.7 | 5.2 | 0.00 | 0.89 | 0.00 | 94 | 1006.0 |
| 20260505232027 | 54 | 207 | 0.9 | 3.5 | 0.00 | 0.89 | 0.00 | 94 | 1005.8 |
| 20260505230016 | 55 | 112 | 0.9 | 1.7 | 0.00 | 0.89 | 0.00 | 96 | 1005.5 |
| 20260505225035 | 55 | 131 | 0.0 | 1.7 | 0.00 | 0.89 | 0.00 | 93 | 1005.5 |
| 20260505224126 | 55 | 132 | 0.9 | 1.7 | 0.00 | 0.89 | 0.00 | 93 | 1005.4 |
| 20260505223021 | 55 | 130 | 0.0 | 1.7 | 0.00 | 0.89 | 0.00 | 92 | 1005.4 |
| 20260505222016 | 55 | 130 | 0.9 | 1.7 | 0.00 | 0.89 | 0.00 | 92 | 1005.3 |
| 20260505221031 | 55 | 125 | 1.7 | 2.6 | 0.00 | 0.89 | 0.00 | 92 | 1005.2 |
| 20260505220026 | 55 | 221 | 0.0 | 0.9 | 0.00 | 0.89 | 0.89 | 93 | 1005.5 |
| 20260505214016 | 56 | 223 | 1.7 | 3.5 | 0.00 | 0.89 | 0.89 | 93 | 1005.7 |
| 20260505213031 | 56 | 226 | 1.7 | 3.5 | 0.00 | 0.89 | 0.89 | 94 | 1005.6 |
| 20260505212026 | 56 | 239 | 0.9 | 1.7 | 0.00 | 0.89 | 0.89 | 93 | 1005.5 |
| 20260505211120 | 56 | 0.0 | 0.0 | 0.00 | 0.89 | 0.89 | 94 | 1005.3 | |
| 20260505210015 | 56 | 253 | 3.5 | 6.1 | 0.00 | 0.89 | 0.89 | 96 | 1005.1 |
| 20260505205131 | 56 | 265 | 4.3 | 8.7 | 0.01 | 0.89 | 0.89 | 97 | 1005.0 |
| 20260505204046 | 56 | 255 | 3.5 | 5.2 | 0.06 | 0.89 | 0.89 | 96 | 1005.0 |
| 20260505203021 | 56 | 252 | 2.6 | 3.5 | 0.12 | 0.89 | 0.89 | 94 | 1005.0 |
| 20260505202016 | 57 | 101 | 1.7 | 3.5 | 0.22 | 0.89 | 0.89 | 93 | 1004.6 |
| 20260505201032 | 56 | 336 | 2.6 | 6.1 | 0.29 | 0.89 | 0.89 | 94 | 1004.7 |
| 20260505200523 | 56 | 283 | 3.5 | 5.2 | 0.29 | 0.89 | 0.89 | 94 | 1004.9 |
| 20260505195517 | 57 | 153 | 0.9 | 2.6 | 0.28 | 0.89 | 0.89 | 92 | 1005.0 |
| 20260505194532 | 57 | 41 | 1.7 | 5.2 | 0.26 | 0.87 | 0.87 | 93 | 1004.8 |
| 20260505193528 | 57 | 245 | 6.1 | 11.3 | 0.20 | 0.80 | 0.80 | 93 | 1004.6 |
| 20260505192523 | 57 | 238 | 7.0 | 12.2 | 0.15 | 0.74 | 0.74 | 91 | 1004.5 |
| 20260505191518 | 57 | 230 | 5.2 | 9.6 | 0.27 | 0.66 | 0.65 | 87 | 1004.6 |
| 20260505190533 | 57 | 242 | 4.3 | 8.7 | 0.40 | 0.61 | 0.60 | 85 | 1004.2 |
| 20260505185528 | 57 | 224 | 7.0 | 14.8 | 0.51 | 0.61 | 0.60 | 86 | 1003.9 |
| 20260505183619 | 58 | 55 | 10.4 | 18.2 | 0.53 | 0.61 | 0.60 | 83 | 1002.5 |
| 20260505182534 | 57 | 357 | 5.2 | 12.2 | 0.52 | 0.59 | 0.58 | 83 | 1002.7 |
| 20260505181530 | 58 | 44 | 5.2 | 13.0 | 0.32 | 0.39 | 0.38 | 85 | 1003.6 |
| 20260505180525 | 59 | 197 | 4.3 | 7.0 | 0.16 | 0.21 | 0.20 | 82 | 1003.8 |
| 20260505175520 | 60 | 201 | 1.7 | 6.1 | 0.07 | 0.10 | 0.09 | 82 | 1003.6 |
| 20260505174534 | 61 | 280 | 5.2 | 11.3 | 0.08 | 0.09 | 0.09 | 81 | 1003.1 |
| 20260505173529 | 62 | 305 | 9.6 | 19.1 | 0.07 | 0.08 | 0.07 | 78 | 1002.9 |
| 20260505172525 | 63 | 269 | 6.1 | 13.0 | 0.07 | 0.07 | 0.07 | 80 | 1002.9 |
| 20260505171520 | 63 | 327 | 1.7 | 6.1 | 0.06 | 0.06 | 0.06 | 78 | 1002.6 |
| 20260505170535 | 63 | 288 | 1.7 | 3.5 | 0.05 | 0.05 | 0.05 | 78 | 1002.5 |
| 20260505165629 | 65 | 229 | 1.7 | 3.5 | 0.03 | 0.03 | 0.03 | 69 | 1002.4 |
| 20260505164524 | 68 | 201 | 2.6 | 5.2 | 0.01 | 0.01 | 0.01 | 61 | 1002.4 |
| 20260505163519 | 70 | 72 | 6.1 | 11.3 | 0.00 | 0.00 | 0.00 | 54 | 1002.4 |
| 20260505162534 | 71 | 47 | 6.1 | 9.6 | 0.00 | 0.00 | 0.00 | 50 | 1002.3 |
| 20260505161529 | 71 | 59 | 4.3 | 7.8 | 0.00 | 0.00 | 0.00 | 50 | 1002.5 |
| 20260505160524 | 72 | 69 | 5.2 | 8.7 | 0.00 | 0.00 | 0.00 | 49 | 1002.7 |
| 20260505152645 | 75 | 81 | 5.2 | 7.8 | 0.00 | 0.00 | 0.00 | 44 | 1002.9 |
| 20260505151540 | 75 | 74 | 7.0 | 13.0 | 0.00 | 0.00 | 0.00 | 43 | 1003.0 |
| 20260505150535 | 75 | 87 | 6.1 | 9.6 | 0.00 | 0.00 | 0.00 | 45 | 1003.0 |
| 20260505140525 | 75 | 56 | 4.3 | 7.8 | 0.00 | 0.00 | 0.00 | 41 | 1003.6 |
| 20260505123522 | 78 | 4 | 3.5 | 7.8 | 0.00 | 0.00 | 0.00 | 38 | 1004.2 |
| 20260505122517 | 79 | 356 | 4.3 | 7.8 | 0.00 | 0.00 | 0.00 | 36 | 1004.3 |
| 20260505121532 | 80 | 35 | 4.3 | 11.3 | 0.00 | 0.00 | 0.00 | 32 | 1004.3 |
| 20260505120527 | 81 | 290 | 3.5 | 6.1 | 0.00 | 0.00 | 0.00 | 32 | 1004.4 |
| 20260505115523 | 81 | 120 | 1.7 | 6.1 | 0.00 | 0.00 | 0.00 | 32 | 1004.5 |
| 20260505114537 | 80 | 138 | 2.6 | 7.0 | 0.00 | 0.00 | 0.00 | 33 | 1004.7 |
| 20260505113632 | 78 | 131 | 1.7 | 3.5 | 0.00 | 0.00 | 0.00 | 30 | 1004.7 |
| 20260505112527 | 78 | 280 | 2.6 | 7.0 | 0.00 | 0.00 | 0.00 | 32 | 1004.8 |
| 20260505101533 | 75 | 265 | 1.7 | 2.6 | 0.00 | 0.00 | 0.00 | 39 | 1005.6 |
| 20260505100528 | 75 | 5 | 3.5 | 8.7 | 0.00 | 0.00 | 0.00 | 39 | 1005.7 |
| 20260505095523 | 74 | 100 | 2.6 | 5.2 | 0.00 | 0.00 | 0.00 | 42 | 1005.8 |
| 20260505094517 | 74 | 9 | 2.6 | 7.0 | 0.00 | 0.00 | 0.00 | 40 | 1005.8 |
| 20260505093532 | 74 | 35 | 3.5 | 7.8 | 0.00 | 0.00 | 0.00 | 44 | 1006.1 |
| 20260505092528 | 74 | 62 | 3.5 | 6.1 | 0.00 | 0.00 | 0.00 | 47 | 1006.1 |
| 20260505091522 | 72 | 257 | 3.5 | 8.7 | 0.00 | 0.00 | 0.00 | 45 | 1006.2 |
| 20260505090517 | 72 | 21 | 2.6 | 5.2 | 0.00 | 0.00 | 0.00 | 46 | 1006.3 |
| 20260505085533 | 71 | 305 | 2.6 | 6.1 | 0.00 | 0.00 | 0.00 | 48 | 1006.3 |
| 20260505084528 | 71 | 289 | 3.5 | 7.0 | 0.00 | 0.00 | 0.00 | 49 | 1006.4 |
| 20260505083523 | 71 | 290 | 1.7 | 2.6 | 0.00 | 0.00 | 0.00 | 50 | 1006.5 |
| 20260505081533 | 70 | 254 | 3.5 | 6.1 | 0.00 | 0.00 | 0.00 | 51 | 1006.6 |
| 20260505080529 | 70 | 288 | 1.7 | 3.5 | 0.00 | 0.00 | 0.00 | 52 | 1006.7 |
| 20260505075525 | 69 | 279 | 0.9 | 2.6 | 0.00 | 0.00 | 0.00 | 54 | 1006.7 |
| 20260505074519 | 69 | 359 | 1.7 | 3.5 | 0.00 | 0.00 | 0.00 | 53 | 1006.9 |
| 20260505073534 | 69 | 58 | 0.0 | 0.9 | 0.00 | 0.00 | 0.00 | 57 | 1006.9 |
| 20260505072629 | 69 | 25 | 1.7 | 2.6 | 0.00 | 0.00 | 0.00 | 57 | 1006.9 |
| 20260505070518 | 67 | 62 | 0.9 | 2.6 | 0.00 | 0.00 | 0.00 | 62 | 1007.1 |
| 20260505065533 | 66 | 45 | 0.9 | 2.6 | 0.00 | 0.00 | 0.00 | 66 | 1007.2 |
| 20260505064528 | 65 | 44 | 1.7 | 2.6 | 0.00 | 0.00 | 0.00 | 68 | 1007.3 |
| 20260505063524 | 64 | 301 | 0.0 | 1.7 | 0.00 | 0.00 | 0.00 | 69 | 1007.4 |
| 20260505062519 | 62 | 285 | 0.0 | 0.9 | 0.00 | 0.00 | 0.00 | 72 | 1007.4 |
| 20260505061533 | 61 | 354 | 0.9 | 1.7 | 0.00 | 0.00 | 0.00 | 72 | 1007.4 |
| 20260505060629 | 60 | 23 | 0.9 | 1.7 | 0.00 | 0.00 | 0.00 | 77 | 1007.4 |
| 20260505055623 | 58 | 280 | 0.0 | 0.9 | 0.00 | 0.00 | 0.00 | 81 | 1007.4 |